Location: Milton Keynes
(52.0316°N, 0.7531°W)
Time: 05:57:29
(UTC+00:00)

Genesis I - Pass Details

Date: 27 January 2019
Orbit: 476 x 550 km, 64.5° (Epoch: 16 February)

Event Time Altitude Azimuth Distance (km) Brightness Sun altitude
Exits shadow 04:03:34 15° 62° (ENE) 1,511 6.2 -34.7°
Drops below altitude 10° 04:04:27 10° 56° (NE) 1,832 6.7 -34.5°
Sets 04:06:48 0° 48° (NE) 2,733 7.7 -34.2°
